Talkeetna, AK

8:12 AM AKDT on August 24, 2016 (GMT -0800)
Talkeetna

Weather History for PATK - October, 2013

Change the Weather History Date:

Tuesday, October 1, 2013

  Actual Average Record
Temperature  
Mean Temperature 39 °F -  
Max Temperature 48 °F 48 °F 68 °F (1954)
Min Temperature 30 °F 31 °F 14 °F (1957)
Degree Days  
Heating Degree Days 26    
Moisture  
Dew Point 28 °F    
Average Humidity 59    
Maximum Humidity 85    
Minimum Humidity 35    
Precipitation  
Precipitation 0.00 in - - ()
Sea Level Pressure  
Sea Level Pressure 29.74 in    
Wind  
Wind Speed 3 mph (WSW)    
Max Wind Speed 7 mph    
Max Gust Speed -    
Visibility 10 miles    
Events      
Averages and records for this station are not official NWS values.
T = Trace of Precipitation, MM = Missing Value Source: NWS Daily Summary

Daily Weather History Graph

Daily Weather History Graph

Search for Another Location

Airport or City:

Trip Planner

Search our weather history database for the weather conditions in past years. The results will help you decide how hot, cold, wet, or windy it might be!

Date:

Astronomy

Oct. 01, 2013 Rise Set
Actual Time 8:08 AM AKDT 7:29 PM AKDT
Civil Twilight 7:24 AM AKDT 8:13 PM AKDT
Nautical Twilight 6:31 AM AKDT 9:06 PM AKDT
Astronomical Twilight 5:35 AM AKDT 10:01 PM AKDT
Moon 4:04 AM AKDT (10/1) 6:16 PM AKDT (10/1)
Length of Visible Light 12h 49m
Length of Day
11h 20m
Waning Crescent, 11% of the Moon is Illuminated
Oct 1
Waning Crescent
Oct 4
New
Oct 11
First Quarter
Oct 18
Full
Oct 26
Last Quarter

Hourly Weather History & Observations

Time (AKDT) Temp. Windchill Dew Point Humidity Pressure Visibility Wind Dir Wind Speed Gust Speed Precip Events Conditions
12:53 AM 46.0 °F 43.1 °F 25.0 °F 44% 29.64 in 10.0 mi North 5.8 mph - N/A   Overcast
1:53 AM 45.0 °F 42.6 °F 25.0 °F 46% 29.65 in 10.0 mi North 4.6 mph - N/A   Mostly Cloudy
2:53 AM 44.1 °F 40.8 °F 26.1 °F 49% 29.66 in 10.0 mi North 5.8 mph - N/A   Overcast
3:53 AM 43.0 °F 40.3 °F 25.0 °F 49% 29.67 in 10.0 mi North 4.6 mph - N/A   Overcast
4:53 AM 41.0 °F - 25.0 °F 53% 29.68 in 10.0 mi Calm Calm - N/A   Mostly Cloudy
5:53 AM 37.0 °F - 26.1 °F 65% 29.69 in 10.0 mi Calm Calm - N/A   Clear
6:53 AM 33.1 °F - 26.1 °F 75% 29.70 in 10.0 mi Calm Calm - N/A   Clear
7:53 AM 32.0 °F - 27.0 °F 82% 29.71 in 10.0 mi Calm Calm - N/A   Overcast
8:53 AM 30.9 °F - 27.0 °F 85% 29.73 in 10.0 mi Calm Calm - N/A   Mostly Cloudy
9:53 AM 34.0 °F - 28.0 °F 79% 29.74 in 10.0 mi Calm Calm - N/A   Mostly Cloudy
10:53 AM 37.0 °F - 28.0 °F 70% 29.75 in 10.0 mi Calm Calm - N/A   Clear
11:53 AM 45.0 °F - 28.0 °F 52% 29.75 in 10.0 mi Calm Calm - N/A   Clear
12:53 PM 46.0 °F 44.8 °F 28.9 °F 51% 29.76 in 10.0 mi SSW 3.5 mph - N/A   Mostly Cloudy
1:53 PM 46.0 °F 42.5 °F 28.0 °F 50% 29.77 in 10.0 mi SW 6.9 mph - N/A   Clear
2:53 PM 46.9 °F - 28.0 °F 48% 29.77 in 10.0 mi SSW 5.8 mph - N/A   Overcast
3:53 PM 48.0 °F - 28.9 °F 48% 29.77 in 10.0 mi SW 4.6 mph - N/A   Overcast
4:53 PM 46.9 °F - 28.9 °F 50% 29.77 in 10.0 mi SW 4.6 mph - N/A   Overcast
5:53 PM 46.9 °F - 30.0 °F 52% 29.78 in 10.0 mi SSW 3.5 mph - N/A   Overcast
6:53 PM 46.9 °F - 28.9 °F 50% 29.78 in 10.0 mi Calm Calm - N/A   Overcast
7:53 PM 45.0 °F - 30.9 °F 58% 29.79 in 10.0 mi Calm Calm - N/A   Overcast
8:53 PM 42.1 °F - 33.1 °F 70% 29.80 in 10.0 mi Calm Calm - N/A   Overcast
9:53 PM 41.0 °F - 33.1 °F 73% 29.81 in 10.0 mi Calm Calm - N/A   Overcast
10:53 PM 39.9 °F - 33.1 °F 77% 29.82 in 10.0 mi Calm Calm - N/A   Overcast
11:53 PM 39.0 °F - 33.1 °F 79% 29.83 in 10.0 mi Calm Calm - N/A   Mostly Cloudy